Lexington Weather

Lexington, Massachusetts, USA

54°F
5/18/2024 12:32am 
  • Lexington Conditions: Clear
  • Temperature: 54.1°F / 12.3°CColder 1.1°F than last hour.
  • Dew Point: 50.0°FDecreased 0.5°Fsince last hour.
  • Relative Humidity: 86%Increased 2.0% since last hour.
  • Wind: Calm, 10-min avg: Calm, gust: None
  • Barometer: 29.96 in Steady
  • Visibility: 10 miles
  • Rain Today: 0.00 in
  •   

Regional Weather Roundup
for Boston, MA

        
000
ASUS41 KBOX 161910
RWRBOX

REGIONAL WEATHER ROUNDUP
NATIONAL WEATHER SERVICE BOSTON/NORTON MA
300 PM EDT THU MAY 16 2024

NOTE:  "FAIR" INDICATES FEW OR NO CLOUDS BELOW 12,000 FEET WITH NO 
SIGNIFICANT WEATHER AND/OR OBSTRUCTIONS TO VISIBILITY.

MAZALL-162000-
EASTERN MASSACHUSETTS
  
CITY           SKY/WX    TMP DP  RH WIND       PRES   REMARKS
BOSTON         LGT RAIN  58  54  86 NE12      29.86R                  
BEVERLY        CLOUDY    59  53  80 NE12      29.86S                  
LAWRENCE       CLOUDY    65  54  67 E10       29.89R                  
BEDFORD        CLOUDY    63  56  78 E10       29.84S                  
NORWOOD        LGT RAIN  61  56  83 NE14G21   29.85R                  
MARSHFIELD     LGT RAIN  55  54  94 VRB7      29.84S                  
PLYMOUTH       LGT RAIN  56  54  93 NE10G22   29.81S                  
TAUNTON        CLOUDY    60  56  86 NE8       29.81S                  
NEW BEDFORD    CLOUDY    59  58  96 NE12G21   29.78R                  
$$

MAZALL-162000-
CAPE COD AND THE ISLANDS
  
CITY           SKY/WX    TMP DP  RH WIND       PRES   REMARKS
FALMOUTH       CLOUDY    55  55 100 NE16      29.79S                  
HYANNIS        CLOUDY    57  55  93 E9G21     29.77R                  
CHATHAM        LGT RAIN  55  53  93 NE16G23   29.79S                  
PROVINCETOWN   LGT RAIN  55  54  96 E12       29.83S                  
NANTUCKET      PTSUNNY   60  55  83 E25G37    29.73S                  
MARTHAS VNYRD  CLOUDY    58  56  93 E21G36    29.75R                  
$$
 
MAZALL-162000-
CENTRAL AND WESTERN MASSACHUSETTS
  
CITY           SKY/WX    TMP DP  RH WIND       PRES   REMARKS
WORCESTER      CLOUDY    58  55  90 NE13G24   29.85S                  
FITCHBURG      CLOUDY    66  54  65 E8        29.86R                  
ORANGE         CLOUDY    67  54  63 NE9G17    29.85S                  
SPRINGFIELD    CLOUDY    62  58  85 NE9       29.81R                  
WESTFIELD      LGT RAIN  62  59  90 NE8       29.84R                  
NORTH ADAMS    CLOUDY    68  54  60 E9G20     29.84S                  
PITTSFIELD     LGT RAIN  60  55  83 E9G22     29.84S                  
$$
 
RIZALL-162000-
RHODE ISLAND
  
CITY           SKY/WX    TMP DP  RH WIND       PRES   REMARKS
PROVIDENCE     RAIN      59  59 100 NE16G24   29.80R FOG              
NEWPORT        CLOUDY    59  58  96 NE15G26   29.77R FOG              
BLOCK ISLAND   CLOUDY    54  54 100 NE17G26   29.75R FOG              
SMITHFIELD     LGT RAIN  59  59 100 E8        29.82S FOG              
WESTERLY       LGT RAIN  60  57  89 NE10G21   29.75R FOG              
$$
 
CTZALL-162000-
CONNECTICUT
  
CITY           SKY/WX    TMP DP  RH WIND       PRES   REMARKS
BRADLEY INTL   LGT RAIN  63  58  83 N13G23    29.82R                  
HARTFORD       CLOUDY    63  58  83 N13G22    29.79R                  
PLAINVILLE     LGT RAIN  61  61 100 N9        29.79R                  
BRIDGEPORT     CLOUDY    66  58  75 NE18G29   29.74R                  
DANBURY        CLOUDY    63  56  78 NE12      29.78R                  
GROTON         LGT RAIN  63  61  93 NE18G29   29.74R FOG              
NEW HAVEN      CLOUDY    67  60  78 NE16G31   29.75R                  
CHESTER        LGT RAIN  63  61  94 NE12G17   29.77R                  
MERIDEN        LGT RAIN  63  57  81 N6        29.78R                  
WILLIMANTIC    CLOUDY    62  57  83 NE16G28   29.79R                  
OXFORD         CLOUDY    59  57  93 NE13G23   29.79R FOG              
$$

MEZ002-015-021-024-NHZ003-005-008-011-012-014-VTZ005-008-162000-
NORTHERN NEW ENGLAND
  
CITY           SKY/WX    TMP DP  RH WIND       PRES   REMARKS
PORTLAND ME    PTSUNNY   65  54  67 E12       29.91S                  
BANGOR ME      PTSUNNY   73  57  57 NE12      29.88S                  
CONCORD NH     CLOUDY    70  54  56 E9        29.87S                  
MANCHESTER NH  CLOUDY    70  52  52 E10G21    29.86R                  
NASHUA NH      CLOUDY    71  54  54 E15       29.87R                  
PORTSMOUTH NH  CLOUDY    67  53  61 E10       29.88R                  
JAFFREY NH     PTSUNNY   68  51  54 VRB7G18   29.87R                  
KEENE NH       CLOUDY    67  53  61 NE10      29.86R                  
BURLINGTON VT  PTSUNNY   71  56  58 CALM      29.87S                  
MT. WASHINGTON DRZL/FOG  43  43 100 E22         N/A  VSB 0            
$$

NYZ052-076-162000-
EASTERN NEW YORK
  
CITY           SKY/WX    TMP DP  RH WIND       PRES   REMARKS
ALBANY         PTSUNNY   72  56  57 NE9       29.84S                  
NEW YORK CITY  CLOUDY    64  56  75 NE16      29.73R                  
$$
 
ANZALL-162000-
MARINE OBSERVATIONS
  
STATION/POSITION TIME  TEMP    WIND        PRES    VSBY  WAVE
                       AIR SEA DIR/SP/G                  HT/PER
                 (UTC) (F)     (DEG/KT/KT) (MB)    (MI)  (FT/S)
BOSTON BUOY      1840   53 53   30/ 14/ 16 1011.4R
BUZZARDS BAY     1800   55      60/ 23/ 24 1007.4S
NANTUCKET SOUND  1840   55 54   60/ 21/ 25 1007.3R
MASS BAY-STELLWA 1704   54 52   30/ 12/ 12 1011.3R  1 7/8  3/ 5
ISLE OF SHOALS   1800   55      40/ 15/ 17 1011.2R
S OF BLOCK IS    1856      49                N/A           9/ 9
$$

......................KEY.........................
  SKY/WX - SKY CONDITION/PRESENT WEATHER
  TMP    - TEMPERATURE IN FAHRENHEIT
  DWPT   - DEWPOINT IN FAHRENHEIT
  RH     - RELATIVE HUMIDITY IN PERCENT
  WIND   - DIRECTION AND SPEED IN MPH
  PRES   - MEAN SEA LEVEL PRESSURE IN INCHES OF HG
  WCI    - WIND CHILL INDEX
  VSB    - VISIBILITY IN MILES
  HX     - HEAT INDEX
  TC     - TEMPERATURE IN CELSIUS
  VRB    - VARIABLE WIND DIRECTION
  N/A    - NOT AVAILABLE
  
      

Other recent Regional Weather Roundups

Sat May 18, 12:10am EDT

Fri May 17, 11:10pm EDT

Fri May 17, 10:10pm EDT

Fri May 17, 9:10pm EDT

Fri May 17, 8:10pm EDT

Fri May 17, 7:10pm EDT

Fri May 17, 6:10pm EDT

Fri May 17, 5:10pm EDT

Fri May 17, 4:10pm EDT

Fri May 17, 3:10pm EDT

Fri May 17, 2:10pm EDT

Fri May 17, 1:10pm EDT

Fri May 17, 12:10pm EDT

Fri May 17, 11:10am EDT

Fri May 17, 10:10am EDT

Fri May 17, 9:10am EDT

Fri May 17, 8:10am EDT

Fri May 17, 7:10am EDT

Fri May 17, 6:10am EDT

Fri May 17, 5:10am EDT

Fri May 17, 4:10am EDT

Fri May 17, 3:10am EDT

Fri May 17, 2:10am EDT

Fri May 17, 1:10am EDT

Fri May 17, 12:10am EDT

Thu May 16, 11:10pm EDT

Thu May 16, 10:10pm EDT

Thu May 16, 9:10pm EDT

Thu May 16, 8:10pm EDT

Thu May 16, 7:10pm EDT

Thu May 16, 6:10pm EDT

Thu May 16, 5:10pm EDT

Thu May 16, 4:10pm EDT

Thu May 16, 2:10pm EDT

Thu May 16, 1:10pm EDT

Thu May 16, 12:10pm EDT

Thu May 16, 11:10am EDT

Thu May 16, 10:10am EDT

Thu May 16, 9:10am EDT

Thu May 16, 8:10am EDT

Thu May 16, 7:10am EDT

Thu May 16, 6:10am EDT

Thu May 16, 5:10am EDT

Thu May 16, 4:10am EDT

Thu May 16, 3:10am EDT

Thu May 16, 2:10am EDT

Thu May 16, 1:10am EDT

Thu May 16, 12:10am EDT

Wed May 15, 11:10pm EDT

Wed May 15, 10:10pm EDT

Wed May 15, 9:10pm EDT

Wed May 15, 8:10pm EDT

Wed May 15, 7:10pm EDT

Wed May 15, 6:10pm EDT

Wed May 15, 5:10pm EDT

Wed May 15, 4:10pm EDT

Wed May 15, 3:10pm EDT

Wed May 15, 2:10pm EDT

Wed May 15, 1:10pm EDT

Wed May 15, 12:10pm EDT

Wed May 15, 11:10am EDT

Wed May 15, 10:10am EDT

Wed May 15, 9:10am EDT

Wed May 15, 8:10am EDT

Wed May 15, 7:10am EDT

Wed May 15, 6:10am EDT

Wed May 15, 5:10am EDT

Wed May 15, 4:10am EDT

Wed May 15, 3:10am EDT

Wed May 15, 2:10am EDT

Wed May 15, 1:10am EDT

Wed May 15, 12:10am EDT

Tue May 14, 11:10pm EDT

Tue May 14, 10:10pm EDT

Tue May 14, 9:10pm EDT

Tue May 14, 8:10pm EDT

Tue May 14, 7:10pm EDT

Tue May 14, 6:10pm EDT

Tue May 14, 5:10pm EDT

Tue May 14, 4:10pm EDT

Tue May 14, 3:10pm EDT

Tue May 14, 2:10pm EDT

Tue May 14, 1:10pm EDT

Tue May 14, 12:10pm EDT

Tue May 14, 11:10am EDT

Tue May 14, 10:10am EDT

Tue May 14, 9:10am EDT

Tue May 14, 8:10am EDT

Tue May 14, 7:10am EDT

Tue May 14, 6:10am EDT

Tue May 14, 5:10am EDT

Tue May 14, 4:10am EDT

Tue May 14, 3:10am EDT

Tue May 14, 2:10am EDT

Tue May 14, 1:10am EDT

Tue May 14, 12:10am EDT

Mon May 13, 11:10pm EDT

Mon May 13, 10:10pm EDT

Mon May 13, 9:10pm EDT

Mon May 13, 8:10pm EDT

Mon May 13, 7:10pm EDT

Mon May 13, 6:10pm EDT

Mon May 13, 5:10pm EDT

Mon May 13, 4:10pm EDT

Mon May 13, 3:10pm EDT

Mon May 13, 2:10pm EDT

Mon May 13, 1:10pm EDT

Mon May 13, 12:10pm EDT

Mon May 13, 11:10am EDT

Mon May 13, 10:10am EDT

Mon May 13, 9:10am EDT

Mon May 13, 8:10am EDT

Mon May 13, 7:10am EDT

Mon May 13, 6:10am EDT

Mon May 13, 5:10am EDT

Mon May 13, 4:10am EDT

Mon May 13, 3:10am EDT

Mon May 13, 2:10am EDT

Mon May 13, 1:10am EDT

Mon May 13, 12:10am EDT

Sun May 12, 11:10pm EDT

Sun May 12, 10:10pm EDT

Sun May 12, 9:10pm EDT

Sun May 12, 8:10pm EDT

Sun May 12, 7:10pm EDT

Sun May 12, 6:10pm EDT

Sun May 12, 5:10pm EDT

Sun May 12, 4:10pm EDT

Sun May 12, 3:10pm EDT

Sun May 12, 2:10pm EDT

Sun May 12, 1:10pm EDT

Sun May 12, 12:10pm EDT

Sun May 12, 11:10am EDT

Sun May 12, 10:10am EDT

Sun May 12, 9:10am EDT

Sun May 12, 8:10am EDT

Sun May 12, 7:10am EDT

Sun May 12, 6:10am EDT

Sun May 12, 5:10am EDT

Sun May 12, 4:10am EDT

Sun May 12, 3:10am EDT

Sun May 12, 2:10am EDT

Sun May 12, 1:10am EDT

Sun May 12, 12:10am EDT

Sat May 11, 11:10pm EDT

Sat May 11, 10:10pm EDT

Sat May 11, 9:10pm EDT

Sat May 11, 8:10pm EDT

Sat May 11, 7:10pm EDT

Sat May 11, 6:10pm EDT

Sat May 11, 5:10pm EDT

Sat May 11, 4:10pm EDT

Sat May 11, 3:10pm EDT

Sat May 11, 2:10pm EDT

Sat May 11, 1:10pm EDT

Sat May 11, 12:10pm EDT

Sat May 11, 11:10am EDT

Sat May 11, 10:10am EDT

Sat May 11, 9:10am EDT

Sat May 11, 8:10am EDT

Sat May 11, 7:10am EDT

Sat May 11, 6:10am EDT

Sat May 11, 5:10am EDT

Sat May 11, 4:10am EDT

Sat May 11, 3:10am EDT

Sat May 11, 2:10am EDT

Sat May 11, 1:10am EDT